Location: Kalberh�ni
(46.4610°N, 7.2453°E)
Time: 11:58:58
(UTC+00:00)

USA 229 - Visible Passes

Search period start: 23 October 2021 00:00
Search period end: 02 November 2021 00:00
Orbit: 949 x 1263 km, 63.4° (Epoch: 21 October)

Date Brightness Start Highest point End Pass type
(mag) Time Alt. Az. Time Alt. Az. Time Alt. Az.
23 Oct 6.3 00:46:36 12° E 00:46:36 12° E 00:47:13 10° E visible
23 Oct 4.1 02:34:09 63° ESE 02:34:09 63° ESE 02:40:34 10° SE visible
23 Oct 4.7 04:21:42 25° W 04:23:10 27° WSW 04:29:25 10° SSW visible
23 Oct 3.5 18:11:07 10° SSW 18:17:21 62° ESE 18:22:06 20° NE visible
23 Oct 4.8 20:02:40 10° WSW 20:08:40 38° NW 20:09:35 36° NNW visible
23 Oct 6.3 21:56:50 10° NW 21:57:04 11° NW 21:57:04 11° NW visible
24 Oct 5.5 01:52:22 25° ESE 01:52:22 25° ESE 01:55:26 10° ESE visible
24 Oct 4.4 03:39:56 38° SW 03:39:56 38° SW 03:45:48 10° S visible
24 Oct 4.0 17:26:58 10° S 17:32:47 40° ESE 17:38:57 10° NE visible
24 Oct 4.3 19:17:17 10° WSW 19:23:32 51° NW 19:26:42 30° NNE visible
24 Oct 5.8 21:11:04 10° WNW 21:14:10 20° NW 21:14:10 20° NW visible
25 Oct 5.1 02:58:10 28° S 02:58:10 28° S 03:01:38 10° SSE visible
25 Oct 5.6 04:45:44 11° WSW 04:45:44 11° WSW 04:46:40 10° SW visible
25 Oct 3.7 18:32:11 10° SW 18:38:34 73° NW 18:43:41 19° NE visible
25 Oct 5.3 20:25:16 10° W 20:30:44 26° NNW 20:31:09 26° NNW visible
26 Oct 6.0 02:16:23 13° SSE 02:16:23 13° SSE 02:17:04 10° SSE visible
26 Oct 5.7 04:03:57 13° SSW 04:03:57 13° SSW 04:04:49 10° SSW visible
26 Oct 3.5 17:47:24 10° SSW 17:53:44 78° SE 18:00:35 10° NE visible
26 Oct 5.0 19:39:34 10° W 19:45:23 33° NNW 19:48:02 25° N visible
26 Oct 6.1 21:33:48 10° NW 21:35:28 15° NW 21:35:28 15° NW visible
27 Oct 3.8 17:02:59 10° SSW 17:09:05 52° ESE 17:15:36 10° NE visible
27 Oct 4.6 18:54:03 10° WSW 19:00:11 43° NW 19:04:49 19° NNE visible
27 Oct 5.7 20:48:06 10° WNW 20:52:15 20° NNW 20:52:15 20° NNW visible
28 Oct 4.1 18:08:47 10° WSW 18:15:07 59° NW 18:21:32 12° NE visible
28 Oct 5.4 20:02:19 10° WNW 20:07:34 24° NNW 20:08:59 22° N visible
28 Oct 6.3 21:56:05 10° NW 21:56:25 11° NW 21:56:25 11° NW visible
29 Oct 3.7 17:23:48 10° SW 17:30:12 84° NW 17:37:06 10° NE visible
29 Oct 5.2 19:16:33 10° W 19:22:09 28° NNW 19:25:39 19° NNE visible
29 Oct 6.0 21:10:43 10° NW 21:13:05 17° NNW 21:13:05 17° NNW visible
30 Oct 4.9 18:30:55 10° W 18:36:51 36° NNW 18:42:17 14° NNE visible
30 Oct 5.6 20:25:07 10° NW 20:29:43 20° N 20:29:43 20° N visible
31 Oct 4.4 17:45:30 10° WSW 17:51:43 48° NW 17:58:24 10° NE visible
31 Oct 5.5 19:39:22 10° WNW 19:44:26 22° NNW 19:46:19 20° N visible
31 Oct 6.2 21:32:46 10° NW 21:33:45 13° NNW 21:33:45 13° NNW visible
01 Nov 3.9 17:00:20 10° SW 17:06:42 68° NW 17:13:35 10° NE visible
01 Nov 5.3 18:53:34 10° WNW 18:58:58 25° NNW 19:02:54 16° NNE visible
01 Nov 5.9 20:47:32 10° NW 20:50:19 18° NNW 20:50:19 18° NNW visible
